QPF
0.01 0.03 0.09 0.11 0.07 0.05 0.03 0.05 0.06 0.06 0.04 0.06 0.09 0.08 0.09 0.08 0.07 0.07 0.06 0.06 0.06 0.07 0.08 0.08 0.07 0.06 0.07 0.07 0.07 0.05 0.06 0.05 0.06 0.06 0.06 0.05 0.05 0.05 0.05 0.05 0.03 0.02 0.03
0.01 0.03 0.08 0.10 0.06 0.05 0.05 0.05 0.04 0.05 0.05 0.05 0.07 0.07 0.08 0.09 0.06 0.06 0.06 0.05 0.05 0.06 0.06 0.05 0.05 0.06 0.07 0.07 0.07 0.06 0.06 0.06 0.05 0.04 0.04 0.03 0.03 0.04 0.04 0.04 0.04 0.04 0.04
0.01 0.02 0.06 0.08 0.07 0.06 0.05 0.04 0.04 0.04 0.05 0.05 0.05 0.06 0.07 0.08 0.07 0.04 0.03 0.05 0.07 0.07 0.05 0.04 0.04 0.05 0.07 0.07 0.06 0.07 0.08 0.06 0.04 0.04 0.03 0.01 0.01 0.04 0.06 0.05 0.05 0.06 0.07
0.01 0.02 0.03 0.06 0.07 0.09 0.07 0.05 0.04 0.04 0.04 0.04 0.05 0.05 0.05 0.07 0.07 0.05 0.05 0.06 0.07 0.06 0.05 0.04 0.04 0.05 0.06 0.07 0.07 0.07 0.07 0.07 0.05 0.04 0.03 0.02 0.01 0.05 0.06 0.08 0.08 0.09 0.08
0.01 0.02 0.04 0.06 0.07 0.10 0.08 0.05 0.05 0.05 0.05 0.05 0.04 0.05 0.06 0.06 0.06 0.06 0.07 0.05 0.05 0.04 0.04 0.05 0.06 0.05 0.05 0.07 0.07 0.08 0.08 0.08 0.04 0.03 0.02 0.02 0.02 0.05 0.07 0.07 0.07 0.07 0.07
0.01 0.01 0.03 0.07 0.06 0.07 0.09 0.07 0.06 0.05 0.06 0.05 0.05 0.05 0.06 0.07 0.08 0.08 0.10 0.09 0.06 0.04 0.03 0.03 0.05 0.06 0.05 0.04 0.06 0.08 0.08 0.06 0.04 0.03 0.01 0.01 0.02 0.04 0.05 0.05 0.06 0.06 0.07
0.02 0.01 0.03 0.06 0.05 0.04 0.05 0.05 0.06 0.09 0.08 0.06 0.04 0.05 0.05 0.05 0.05 0.08 0.11 0.09 0.06 0.05 0.05 0.04 0.04 0.05 0.04 0.03 0.05 0.06 0.05 0.06 0.05 0.03 0.01 0.01 0.03 0.05 0.04 0.05 0.06 0.07 0.06
0.02 0.03 0.03 0.04 0.03 0.04 0.04 0.04 0.05 0.09 0.08 0.07 0.05 0.04 0.05 0.06 0.06 0.08 0.06 0.06 0.06 0.07 0.07 0.06 0.05 0.05 0.04 0.03 0.04 0.05 0.05 0.05 0.05 0.04 0.01 0.02 0.05 0.05 0.04 0.05 0.06 0.08 0.07
0.03 0.06 0.05 0.03 0.03 0.05 0.05 0.02 0.03 0.04 0.05 0.04 0.04 0.04 0.04 0.04 0.05 0.06 0.06 0.05 0.05 0.04 0.04 0.04 0.04 0.04 0.03 0.03 0.05 0.06 0.04 0.04 0.03 0.03 0.03 0.02 0.06 0.06 0.06 0.06 0.06 0.07 0.07
0.02 0.05 0.06 0.04 0.04 0.05 0.03 0.02 0.02 0.02 0.03 0.02 0.02 0.02 0.02 0.02 0.03 0.04 0.04 0.03 0.03 0.03 0.03 0.02 0.02 0.03 0.03 0.03 0.06 0.06 0.04 0.03 0.02 0.02 0.02 0.04 0.06 0.07 0.08 0.08 0.07 0.06 0.07
0.01 0.02 0.04 0.05 0.06 0.04 0.02 0.02 0.02 0.02 0.02 0.02 0.01 0.01 0.01 0.01 0.01 0.01 0.02 0.02 0.02 0.02 0.02 0.02 0.03 0.03 0.03 0.03 0.06 0.06 0.04 0.02 0.02 0.01 0.01 0.06 0.09 0.09 0.10 0.10 0.08 0.07 0.06
0.01 0.01 0.03 0.05 0.04 0.02 0.01 0.01 0.01 0.01 0.01 0.02 0.02 0.01 0.00 0.01 0.00 0.01 0.02 0.03 0.03 0.02 0.02 0.03 0.04 0.05 0.04 0.04 0.06 0.07 0.06 0.05 0.03 0.02 0.03 0.08 0.09 0.11 0.14 0.14 0.10 0.08 0.08
0.01 0.01 0.02 0.03 0.02 0.02 0.01 0.02 0.02 0.02 0.01 0.02 0.02 0.01 0.01 0.00 0.00 0.01 0.02 0.02 0.02 0.02 0.02 0.02 0.04 0.06 0.06 0.06 0.07 0.08 0.07 0.07 0.05 0.04 0.05 0.09 0.11 0.13 0.14 0.12 0.10 0.09 0.10
0.01 0.01 0.01 0.01 0.01 0.01 0.01 0.01 0.03 0.03 0.02 0.03 0.02 0.01 0.01 0.01 0.01 0.01 0.03 0.03 0.02 0.02 0.02 0.03 0.05 0.08 0.07 0.06 0.07 0.09 0.09 0.10 0.08 0.06 0.06 0.09 0.11 0.12 0.13 0.11 0.09 0.10 0.09
0.02 0.01 0.01 0.01 0.01 0.01 0.01 0.01 0.02 0.02 0.03 0.04 0.03 0.03 0.02 0.02 0.01 0.01 0.01 0.01 0.03 0.04 0.04 0.04 0.04 0.07 0.09 0.08 0.08 0.09 0.11 0.12 0.11 0.10 0.08 0.08 0.09 0.11 0.12 0.12 0.13 0.15 0.16
0.02 0.03 0.01 0.01 0.01 0.01 0.01 0.01 0.02 0.02 0.02 0.03 0.03 0.03 0.02 0.02 0.02 0.02 0.01 0.01 0.01 0.01 0.01 0.01 0.02 0.04 0.06 0.07 0.07 0.07 0.09 0.11 0.11 0.11 0.09 0.08 0.07 0.09 0.10 0.11 0.13 0.18 0.21
0.02 0.02 0.02 0.02 0.03 0.03 0.02 0.02 0.01 0.01 0.01 0.02 0.02 0.02 0.02 0.02 0.02 0.02 0.01 0.01 0.00 0.01 0.01 0.01 0.01 0.02 0.03 0.05 0.06 0.06 0.08 0.09 0.10 0.09 0.08 0.07 0.06 0.08 0.10 0.11 0.14 0.15 0.14
0.01 0.02 0.01 0.02 0.04 0.04 0.03 0.03 0.02 0.02 0.02 0.02 0.03 0.03 0.02 0.01 0.01 0.01 0.01 0.01 0.01 0.01 0.01 0.01 0.01 0.02 0.02 0.02 0.03 0.04 0.05 0.05 0.06 0.06 0.06 0.06 0.07 0.08 0.10 0.14 0.14 0.15 0.14
0.01 0.01 0.02 0.02 0.03 0.04 0.04 0.03 0.03 0.03 0.03 0.02 0.02 0.03 0.03 0.02 0.01 0.01 0.00 0.01 0.01 0.01 0.01 0.01 0.01 0.03 0.03 0.03 0.03 0.03 0.04 0.05 0.06 0.07 0.08 0.08 0.09 0.08 0.07 0.09 0.12 0.13 0.13
0.02 0.02 0.02 0.02 0.02 0.03 0.04 0.03 0.02 0.02 0.01 0.01 0.01 0.01 0.03 0.03 0.02 0.01 0.01 0.00 0.01 0.01 0.02 0.02 0.02 0.02 0.03 0.03 0.03 0.03 0.04 0.05 0.06 0.07 0.09 0.09 0.07 0.07 0.06 0.06 0.07 0.10 0.11
0.04 0.03 0.03 0.03 0.04 0.03 0.03 0.03 0.02 0.01 0.01 0.01 0.01 0.01 0.01 0.03 0.03 0.02 0.01 0.01 0.01 0.01 0.02 0.03 0.03 0.02 0.02 0.02 0.03 0.03 0.04 0.05 0.05 0.06 0.07 0.07 0.05 0.05 0.05 0.06 0.05 0.05 0.06
0.03 0.03 0.02 0.03 0.03 0.03 0.03 0.03 0.03 0.03 0.02 0.02 0.02 0.02 0.01 0.02 0.03 0.03 0.02 0.01 0.02 0.02 0.02 0.02 0.02 0.02 0.01 0.01 0.02 0.03 0.04 0.04 0.03 0.04 0.05 0.05 0.04 0.03 0.03 0.04 0.04 0.04 0.04
0.02 0.01 0.01 0.02 0.03 0.04 0.04 0.05 0.04 0.04 0.03 0.03 0.02 0.02 0.01 0.02 0.02 0.03 0.02 0.01 0.02 0.03 0.02 0.02 0.02 0.02 0.01 0.01 0.02 0.02 0.02 0.02 0.02 0.03 0.03 0.04 0.03 0.02 0.03 0.03 0.03 0.04 0.04
0.02 0.01 0.01 0.02 0.02 0.03 0.04 0.05 0.04 0.04 0.03 0.03 0.03 0.02 0.03 0.02 0.02 0.04 0.03 0.01 0.01 0.02 0.02 0.02 0.02 0.02 0.01 0.01 0.02 0.02 0.01 0.01 0.01 0.01 0.01 0.01 0.02 0.01 0.01 0.02 0.02 0.02 0.04
0.03 0.02 0.01 0.01 0.01 0.02 0.02 0.04 0.04 0.04 0.03 0.03 0.03 0.03 0.03 0.03 0.02 0.03 0.02 0.01 0.01 0.01 0.01 0.02 0.02 0.02 0.01 0.01 0.02 0.02 0.02 0.01 0.01 0.01 0.01 0.00 0.01 0.01 0.00 0.00 0.01 0.01 0.01
0.02 0.01 0.01 0.01 0.01 0.01 0.02 0.03 0.03 0.03 0.03 0.03 0.03 0.04 0.04 0.03 0.03 0.03 0.02 0.01 0.02 0.01 0.01 0.02 0.02 0.02 0.01 0.01 0.01 0.01 0.01 0.01 0.01 0.00 0.00 0.00 0.00 0.00 0.00 0.00 0.00 0.01 0.01
MSLP
1012.74 1012.13 1011.72 1011.57 1011.64 1011.88 1012.18 1012.46 1012.65 1012.73 1012.70 1012.60 1012.51 1012.48 1012.52 1012.65 1012.84 1013.04 1013.20 1013.29 1013.29 1013.23 1013.12 1013.02 1012.96 1012.93 1012.95 1012.99 1013.01 1012.99 1012.92 1012.79 1012.63 1012.43 1012.24 1012.05 1011.86 1011.67 1011.46 1011.22 1010.95 1010.66 1010.38
1012.65 1012.15 1011.85 1011.78 1011.92 1012.20 1012.52 1012.80 1012.98 1013.05 1013.02 1012.94 1012.87 1012.87 1012.96 1013.13 1013.34 1013.56 1013.72 1013.81 1013.82 1013.76 1013.66 1013.57 1013.50 1013.48 1013.48 1013.49 1013.48 1013.44 1013.33 1013.18 1013.00 1012.80 1012.60 1012.41 1012.22 1012.01 1011.78 1011.52 1011.22 1010.92 1010.62
1012.52 1012.14 1011.95 1011.97 1012.17 1012.47 1012.81 1013.09 1013.27 1013.35 1013.34 1013.30 1013.28 1013.32 1013.44 1013.63 1013.84 1014.04 1014.19 1014.25 1014.24 1014.18 1014.10 1014.02 1013.97 1013.96 1013.97 1013.97 1013.95 1013.88 1013.75 1013.58 1013.39 1013.18 1012.98 1012.79 1012.59 1012.38 1012.14 1011.86 1011.56 1011.24 1010.92
1012.40 1012.13 1012.04 1012.14 1012.38 1012.71 1013.05 1013.33 1013.53 1013.63 1013.66 1013.67 1013.70 1013.79 1013.94 1014.12 1014.32 1014.48 1014.59 1014.62 1014.58 1014.52 1014.44 1014.40 1014.38 1014.40 1014.43 1014.44 1014.41 1014.33 1014.19 1014.01 1013.81 1013.60 1013.40 1013.20 1013.00 1012.79 1012.54 1012.26 1011.94 1011.62 1011.30
1012.34 1012.18 1012.17 1012.32 1012.59 1012.93 1013.26 1013.54 1013.74 1013.87 1013.95 1014.02 1014.11 1014.24 1014.41 1014.60 1014.76 1014.88 1014.93 1014.92 1014.87 1014.80 1014.75 1014.73 1014.76 1014.82 1014.88 1014.92 1014.90 1014.81 1014.67 1014.48 1014.27 1014.05 1013.85 1013.65 1013.44 1013.22 1012.97 1012.68 1012.37 1012.05 1011.73
1012.39 1012.31 1012.36 1012.55 1012.83 1013.15 1013.47 1013.73 1013.94 1014.09 1014.21 1014.34 1014.49 1014.67 1014.86 1015.04 1015.18 1015.26 1015.27 1015.22 1015.15 1015.09 1015.07 1015.10 1015.17 1015.28 1015.37 1015.43 1015.42 1015.33 1015.18 1014.99 1014.76 1014.54 1014.33 1014.12 1013.91 1013.68 1013.42 1013.13 1012.82 1012.50 1012.18
1012.58 1012.56 1012.65 1012.86 1013.13 1013.43 1013.71 1013.95 1014.15 1014.31 1014.47 1014.65 1014.85 1015.07 1015.29 1015.47 1015.60 1015.65 1015.63 1015.57 1015.50 1015.45 1015.46 1015.53 1015.65 1015.79 1015.92 1015.99 1015.98 1015.89 1015.73 1015.52 1015.29 1015.05 1014.82 1014.60 1014.37 1014.13 1013.87 1013.58 1013.27 1012.96 1012.64
1012.90 1012.92 1013.05 1013.26 1013.51 1013.77 1014.02 1014.22 1014.40 1014.57 1014.75 1014.97 1015.21 1015.46 1015.70 1015.90 1016.02 1016.07 1016.04 1015.98 1015.93 1015.91 1015.95 1016.06 1016.21 1016.38 1016.52 1016.59 1016.57 1016.47 1016.29 1016.07 1015.82 1015.56 1015.32 1015.08 1014.84 1014.59 1014.31 1014.02 1013.72 1013.41 1013.10
1013.32 1013.38 1013.53 1013.74 1013.97 1014.20 1014.40 1014.57 1014.72 1014.88 1015.08 1015.31 1015.58 1015.86 1016.12 1016.33 1016.46 1016.51 1016.51 1016.47 1016.44 1016.46 1016.54 1016.68 1016.85 1017.02 1017.15 1017.21 1017.18 1017.05 1016.85 1016.61 1016.34 1016.07 1015.81 1015.55 1015.29 1015.03 1014.75 1014.46 1014.16 1013.86 1013.57
1013.77 1013.87 1014.04 1014.26 1014.48 1014.68 1014.85 1014.98 1015.11 1015.26 1015.45 1015.68 1015.96 1016.26 1016.53 1016.75 1016.90 1016.98 1017.00 1017.00 1017.01 1017.07 1017.18 1017.34 1017.52 1017.68 1017.80 1017.83 1017.77 1017.62 1017.40 1017.14 1016.86 1016.57 1016.29 1016.02 1015.76 1015.48 1015.20 1014.91 1014.62 1014.34 1014.07
1014.20 1014.34 1014.54 1014.77 1014.98 1015.17 1015.32 1015.43 1015.54 1015.68 1015.85 1016.09 1016.37 1016.66 1016.93 1017.16 1017.33 1017.44 1017.49 1017.54 1017.59 1017.69 1017.83 1018.00 1018.18 1018.34 1018.43 1018.44 1018.35 1018.18 1017.95 1017.67 1017.38 1017.09 1016.80 1016.52 1016.24 1015.96 1015.68 1015.40 1015.13 1014.87 1014.62
1014.53 1014.72 1014.95 1015.20 1015.42 1015.61 1015.75 1015.86 1015.97 1016.10 1016.27 1016.50 1016.77 1017.05 1017.32 1017.55 1017.73 1017.86 1017.95 1018.04 1018.13 1018.27 1018.43 1018.62 1018.80 1018.95 1019.02 1019.01 1018.91 1018.74 1018.50 1018.22 1017.93 1017.64 1017.35 1017.06 1016.78 1016.50 1016.21 1015.94 1015.69 1015.45 1015.23
1014.75 1014.97 1015.23 1015.50 1015.74 1015.94 1016.10 1016.22 1016.35 1016.49 1016.67 1016.89 1017.15 1017.42 1017.67 1017.90 1018.08 1018.23 1018.35 1018.47 1018.61 1018.78 1018.98 1019.18 1019.37 1019.51 1019.58 1019.57 1019.47 1019.30 1019.08 1018.81 1018.53 1018.25 1017.96 1017.67 1017.38 1017.09 1016.81 1016.55 1016.30 1016.09 1015.90
1014.83 1015.09 1015.37 1015.66 1015.92 1016.14 1016.32 1016.48 1016.63 1016.80 1017.00 1017.23 1017.48 1017.74 1017.99 1018.20 1018.39 1018.54 1018.69 1018.84 1019.02 1019.22 1019.44 1019.67 1019.87 1020.02 1020.11 1020.11 1020.04 1019.89 1019.69 1019.46 1019.20 1018.92 1018.64 1018.35 1018.05 1017.75 1017.46 1017.20 1016.97 1016.77 1016.60
1014.83 1015.10 1015.40 1015.69 1015.96 1016.20 1016.42 1016.61 1016.81 1017.02 1017.25 1017.50 1017.76 1018.01 1018.25 1018.46 1018.64 1018.81 1018.97 1019.16 1019.36 1019.60 1019.85 1020.10 1020.32 1020.50 1020.61 1020.65 1020.61 1020.51 1020.36 1020.16 1019.92 1019.67 1019.38 1019.08 1018.77 1018.45 1018.16 1017.88 1017.65 1017.46 1017.30
1014.81 1015.07 1015.36 1015.64 1015.91 1016.16 1016.40 1016.64 1016.88 1017.14 1017.41 1017.69 1017.96 1018.22 1018.45 1018.66 1018.84 1019.02 1019.21 1019.42 1019.66 1019.92 1020.20 1020.48 1020.74 1020.95 1021.10 1021.18 1021.20 1021.15 1021.04 1020.89 1020.69 1020.44 1020.16 1019.85 1019.52 1019.19 1018.86 1018.57 1018.33 1018.13 1017.98
1014.84 1015.08 1015.33 1015.59 1015.83 1016.08 1016.33 1016.60 1016.88 1017.17 1017.48 1017.79 1018.08 1018.35 1018.58 1018.79 1018.99 1019.18 1019.39 1019.63 1019.91 1020.20 1020.52 1020.84 1021.12 1021.37 1021.56 1021.70 1021.76 1021.77 1021.72 1021.62 1021.45 1021.23 1020.96 1020.64 1020.28 1019.92 1019.57 1019.26 1018.99 1018.78 1018.61
1015.01 1015.21 1015.41 1015.61 1015.82 1016.03 1016.27 1016.54 1016.84 1017.15 1017.48 1017.81 1018.11 1018.39 1018.63 1018.85 1019.06 1019.28 1019.52 1019.80 1020.11 1020.44 1020.80 1021.14 1021.46 1021.75 1021.98 1022.16 1022.29 1022.35 1022.36 1022.30 1022.18 1021.99 1021.73 1021.41 1021.04 1020.66 1020.28 1019.94 1019.64 1019.40 1019.21
1015.38 1015.52 1015.66 1015.79 1015.93 1016.09 1016.28 1016.52 1016.80 1017.11 1017.44 1017.76 1018.06 1018.33 1018.58 1018.82 1019.05 1019.30 1019.58 1019.90 1020.25 1020.63 1021.01 1021.39 1021.74 1022.06 1022.33 1022.56 1022.73 1022.85 1022.91 1022.91 1022.84 1022.69 1022.45 1022.15 1021.79 1021.40 1021.00 1020.63 1020.31 1020.03 1019.81
1015.96 1016.05 1016.11 1016.16 1016.21 1016.29 1016.42 1016.60 1016.83 1017.09 1017.38 1017.66 1017.94 1018.20 1018.44 1018.69 1018.94 1019.23 1019.55 1019.92 1020.31 1020.73 1021.16 1021.56 1021.94 1022.29 1022.59 1022.85 1023.06 1023.24 1023.36 1023.42 1023.41 1023.31 1023.12 1022.86 1022.52 1022.14 1021.74 1021.36 1021.00 1020.70 1020.45
1016.77 1016.78 1016.77 1016.73 1016.69 1016.68 1016.71 1016.80 1016.95 1017.13 1017.34 1017.57 1017.79 1018.01 1018.24 1018.48 1018.76 1019.07 1019.44 1019.85 1020.29 1020.75 1021.21 1021.64 1022.04 1022.41 1022.73 1023.02 1023.28 1023.50 1023.68 1023.81 1023.87 1023.84 1023.72 1023.52 1023.23 1022.88 1022.50 1022.12 1021.75 1021.43 1021.15
1017.76 1017.71 1017.61 1017.48 1017.35 1017.24 1017.17 1017.15 1017.19 1017.27 1017.38 1017.51 1017.66 1017.83 1018.02 1018.24 1018.52 1018.86 1019.26 1019.70 1020.19 1020.68 1021.16 1021.62 1022.04 1022.42 1022.76 1023.08 1023.37 1023.64 1023.88 1024.07 1024.21 1024.27 1024.24 1024.11 1023.90 1023.61 1023.27 1022.91 1022.55 1022.21 1021.91
1018.88 1018.77 1018.60 1018.39 1018.17 1017.96 1017.79 1017.65 1017.57 1017.54 1017.53 1017.56 1017.62 1017.71 1017.84 1018.03 1018.29 1018.63 1019.04 1019.51 1020.01 1020.53 1021.03 1021.50 1021.93 1022.32 1022.68 1023.01 1023.34 1023.65 1023.94 1024.21 1024.43 1024.58 1024.65 1024.62 1024.49 1024.29 1024.01 1023.69 1023.35 1023.02 1022.71
1020.06 1019.89 1019.67 1019.40 1019.10 1018.81 1018.54 1018.31 1018.12 1017.96 1017.85 1017.76 1017.72 1017.71 1017.77 1017.91 1018.12 1018.44 1018.83 1019.29 1019.80 1020.31 1020.82 1021.29 1021.72 1022.12 1022.49 1022.84 1023.20 1023.54 1023.89 1024.22 1024.52 1024.76 1024.92 1025.00 1024.98 1024.86 1024.67 1024.41 1024.12 1023.80 1023.50
1021.24 1021.03 1020.75 1020.43 1020.08 1019.73 1019.39 1019.08 1018.80 1018.55 1018.33 1018.14 1017.99 1017.89 1017.86 1017.91 1018.06 1018.31 1018.66 1019.08 1019.56 1020.05 1020.54 1021.00 1021.44 1021.84 1022.22 1022.59 1022.96 1023.34 1023.73 1024.11 1024.48 1024.80 1025.05 1025.22 1025.30 1025.29 1025.19 1025.02 1024.78 1024.51 1024.23
1022.36 1022.11 1021.80 1021.45 1021.07 1020.68 1020.30 1019.94 1019.60 1019.28 1018.97 1018.69 1018.45 1018.24 1018.11 1018.06 1018.12 1018.28 1018.54 1018.89 1019.30 1019.75 1020.20 1020.65 1021.07 1021.47 1021.86 1022.25 1022.64 1023.05 1023.47 1023.89 1024.30 1024.69 1025.01 1025.28 1025.45 1025.54 1025.54 1025.46 1025.30 1025.09 1024.85
Thickness
5756 5760 5762 5763 5764 5765 5766 5767 5767 5768 5768 5769 5769 5769 5770 5771 5771 5771 5771 5771 5771 5771 5771 5771 5771 5771 5771 5771 5771 5770 5770 5770 5769 5769 5769 5768 5768 5768 5768 5768 5767 5767 5768
5757 5759 5760 5762 5763 5764 5764 5765 5765 5765 5766 5766 5766 5767 5767 5768 5769 5769 5769 5769 5769 5768 5768 5768 5768 5768 5768 5768 5768 5768 5767 5767 5766 5766 5766 5765 5765 5765 5765 5765 5765 5765 5765
5756 5757 5758 5760 5761 5762 5762 5762 5763 5763 5763 5763 5763 5764 5764 5765 5765 5766 5766 5766 5766 5765 5765 5765 5765 5765 5765 5764 5764 5764 5764 5763 5763 5762 5762 5762 5762 5762 5762 5762 5762 5762 5762
5755 5755 5756 5757 5758 5759 5759 5760 5760 5760 5760 5760 5760 5761 5761 5762 5762 5762 5763 5763 5762 5762 5762 5762 5762 5762 5761 5761 5761 5761 5760 5760 5759 5759 5758 5758 5758 5759 5759 5759 5759 5759 5759
5752 5753 5753 5754 5755 5755 5756 5757 5757 5757 5757 5757 5757 5757 5758 5758 5758 5758 5758 5758 5758 5758 5758 5758 5758 5758 5757 5757 5757 5757 5757 5756 5756 5755 5755 5755 5755 5756 5756 5756 5756 5756 5756
5750 5750 5750 5750 5751 5752 5752 5753 5753 5753 5754 5754 5754 5754 5754 5754 5754 5754 5754 5754 5754 5754 5754 5754 5754 5754 5754 5753 5753 5753 5753 5752 5752 5751 5751 5751 5752 5752 5753 5753 5753 5753 5753
5746 5747 5747 5747 5747 5747 5748 5748 5749 5749 5750 5750 5750 5750 5750 5750 5750 5750 5750 5750 5750 5750 5750 5750 5750 5750 5749 5749 5749 5749 5749 5749 5748 5748 5748 5748 5748 5749 5749 5749 5749 5749 5749
5742 5743 5742 5742 5742 5743 5743 5743 5744 5744 5745 5745 5745 5746 5746 5746 5746 5746 5746 5746 5745 5745 5745 5745 5745 5745 5745 5745 5745 5745 5745 5745 5744 5744 5743 5744 5744 5745 5745 5745 5745 5745 5745
5737 5737 5737 5737 5738 5738 5738 5739 5739 5739 5740 5740 5740 5741 5741 5741 5741 5741 5741 5741 5741 5741 5741 5741 5741 5741 5741 5741 5741 5740 5740 5740 5740 5740 5740 5740 5740 5740 5740 5740 5740 5740 5740
5732 5732 5732 5732 5733 5733 5733 5734 5734 5734 5735 5735 5735 5735 5735 5735 5736 5736 5736 5737 5737 5737 5737 5737 5736 5736 5736 5736 5736 5736 5736 5736 5736 5735 5735 5735 5736 5736 5736 5735 5735 5734 5735
5726 5727 5727 5727 5727 5728 5728 5729 5729 5729 5729 5729 5729 5730 5730 5730 5730 5730 5731 5732 5732 5732 5732 5732 5732 5731 5731 5731 5731 5732 5732 5732 5731 5730 5729 5730 5731 5731 5731 5730 5729 5729 5729
5720 5722 5723 5723 5723 5723 5723 5724 5724 5724 5724 5724 5724 5724 5724 5724 5725 5725 5726 5726 5726 5726 5727 5726 5726 5726 5726 5725 5725 5727 5727 5727 5726 5724 5723 5725 5725 5725 5725 5725 5724 5723 5723
5717 5719 5719 5719 5719 5718 5719 5719 5718 5718 5718 5718 5719 5719 5719 5719 5720 5720 5720 5720 5720 5721 5721 5721 5721 5720 5720 5719 5719 5720 5720 5720 5718 5717 5717 5718 5719 5719 5719 5719 5718 5717 5717
5714 5715 5715 5715 5715 5714 5714 5714 5713 5713 5713 5713 5713 5714 5714 5714 5714 5714 5714 5714 5714 5714 5714 5714 5714 5714 5713 5712 5711 5711 5711 5711 5710 5710 5710 5711 5711 5712 5712 5712 5712 5711 5711
5710 5711 5711 5712 5711 5710 5710 5709 5708 5708 5708 5708 5708 5708 5708 5708 5708 5708 5708 5708 5708 5708 5708 5708 5708 5708 5706 5706 5705 5704 5703 5702 5702 5702 5702 5702 5703 5704 5705 5705 5705 5705 5705
5706 5707 5708 5708 5707 5706 5705 5704 5703 5703 5703 5703 5702 5702 5702 5703 5703 5703 5703 5702 5702 5702 5702 5701 5701 5701 5700 5699 5698 5697 5695 5695 5694 5694 5694 5694 5695 5696 5697 5698 5698 5699 5699
5703 5704 5704 5704 5703 5702 5700 5700 5698 5698 5698 5697 5697 5697 5697 5697 5697 5697 5697 5696 5696 5696 5696 5695 5695 5695 5693 5692 5690 5689 5688 5687 5686 5686 5686 5687 5687 5688 5688 5690 5690 5692 5692
5700 5700 5700 5701 5699 5697 5696 5695 5693 5693 5692 5692 5692 5692 5692 5692 5692 5691 5691 5690 5690 5691 5690 5689 5688 5687 5685 5684 5682 5681 5680 5680 5679 5678 5678 5678 5678 5679 5680 5681 5683 5684 5685
5697 5697 5696 5696 5694 5693 5692 5690 5689 5687 5687 5687 5686 5686 5686 5686 5686 5686 5685 5684 5684 5684 5683 5682 5680 5679 5677 5676 5675 5673 5673 5672 5671 5671 5670 5670 5670 5670 5671 5672 5674 5675 5676
5693 5693 5692 5691 5689 5688 5686 5684 5683 5682 5682 5681 5681 5681 5681 5681 5681 5681 5679 5678 5678 5677 5676 5675 5673 5671 5670 5668 5668 5665 5663 5663 5663 5662 5662 5662 5662 5662 5663 5664 5666 5666 5668
5689 5688 5687 5686 5684 5683 5681 5679 5677 5675 5675 5675 5676 5676 5676 5676 5675 5674 5673 5672 5671 5670 5668 5668 5666 5664 5662 5661 5659 5656 5655 5655 5654 5654 5654 5654 5654 5654 5655 5656 5658 5658 5659
5684 5683 5682 5682 5681 5680 5678 5676 5674 5671 5670 5669 5669 5670 5670 5670 5669 5669 5667 5666 5665 5664 5662 5661 5660 5657 5655 5654 5651 5648 5645 5645 5646 5647 5646 5646 5646 5647 5647 5649 5650 5651 5652
5680 5679 5680 5678 5676 5675 5674 5672 5669 5666 5664 5663 5663 5663 5663 5664 5663 5662 5661 5660 5659 5658 5656 5655 5653 5651 5648 5646 5645 5642 5639 5636 5635 5637 5638 5637 5638 5639 5640 5641 5642 5643 5644
5677 5676 5675 5673 5672 5670 5669 5667 5664 5661 5658 5657 5656 5656 5656 5657 5657 5656 5655 5654 5653 5652 5650 5649 5648 5646 5644 5640 5638 5636 5634 5633 5630 5629 5630 5630 5631 5631 5632 5634 5635 5636 5637
5674 5672 5671 5668 5666 5665 5663 5662 5659 5656 5654 5652 5652 5651 5650 5650 5650 5650 5649 5648 5647 5645 5644 5643 5642 5641 5638 5636 5633 5630 5628 5627 5625 5623 5622 5622 5623 5624 5625 5626 5627 5629 5630
5669 5668 5666 5663 5661 5660 5658 5656 5653 5651 5649 5647 5646 5645 5644 5644 5644 5643 5643 5642 5641 5639 5638 5637 5636 5635 5633 5631 5628 5626 5624 5622 5620 5618 5615 5614 5615 5617 5618 5619 5620 5622 5623